DAH62 LEPA-DAAG

Flight info

Callsign DAH62
Flight time 0h 36m
Altitude 27000
Route OSGAL N859 GENIO N855 BUYAH UN855 ALR
Aircraft B736/M-SDE2E3FGHIRWXY/LB1

Departure

Time 2026-05-04 16:38
Airport Palma de Mallorca Airport (LEPA)

Arrival

Time 2026-05-04 17:14
Airport Houari Boumediene Airport (DAAG)
Time Latitude Longitude Altitude Speed Heading
2026-05-04 15:48 39.55065 2.73585 43 ft 0 kts 163°
2026-05-04 16:26 39.55099 2.73543 42 ft 2 kts 94°
2026-05-04 16:26 39.55092 2.73510 42 ft 0 kts 57°
2026-05-04 16:28 39.55096 2.73518 42 ft 1 kts 58°
2026-05-04 16:29 39.55174 2.73725 42 ft 7 kts 112°
2026-05-04 16:30 39.55242 2.73791 42 ft 7 kts 328°
2026-05-04 16:31 39.55447 2.73626 42 ft 22 kts 333°
2026-05-04 16:31 39.55709 2.73617 43 ft 16 kts 59°
2026-05-04 16:32 39.55942 2.74111 43 ft 17 kts 58°
2026-05-04 16:33 39.56048 2.74332 43 ft 14 kts 58°
2026-05-04 16:33 39.56131 2.74451 43 ft 0 kts
2026-05-04 16:36 39.56150 2.74446 44 ft 8 kts 343°
2026-05-04 16:37 39.56234 2.74285 44 ft 12 kts 232°
2026-05-04 16:37 39.56213 2.74242 44 ft 0 kts 237°
2026-05-04 16:37 39.56030 2.73861 44 ft 85 kts 238°
2026-05-04 16:38 39.55127 2.71918 719 ft 137 kts 238°
2026-05-04 16:39 39.53421 2.68354 2246 ft 174 kts 237°
2026-05-04 16:39 39.51798 2.65751 3079 ft 209 kts 207°
2026-05-04 16:40 39.48731 2.66378 4071 ft 251 kts 158°
2026-05-04 16:40 39.45416 2.68319 5409 ft 267 kts 162°
2026-05-04 16:41 39.41932 2.70094 7011 ft 273 kts 164°
2026-05-04 16:41 39.36561 2.72802 9456 ft 284 kts 164°
2026-05-04 16:42 39.30785 2.75709 11262 ft 319 kts 164°
2026-05-04 16:43 39.26482 2.77873 12289 ft 347 kts 163°
2026-05-04 16:43 39.21913 2.80186 13684 ft 356 kts 163°
2026-05-04 16:43 39.19632 2.81340 13908 ft 358 kts 163°
2026-05-04 16:44 39.10395 2.85999 13949 ft 355 kts 164°
2026-05-04 16:45 39.05773 2.88320 13961 ft 356 kts 164°
2026-05-04 16:46 38.98773 2.91407 13962 ft 351 kts 169°
2026-05-04 16:46 38.94040 2.92956 13964 ft 351 kts 171°
2026-05-04 16:47 38.89262 2.94525 15184 ft 358 kts 171°
2026-05-04 16:47 38.84352 2.96175 16692 ft 369 kts 172°
2026-05-04 16:48 38.76815 2.98734 19003 ft 380 kts 172°
2026-05-04 16:48 38.74280 2.99598 19791 ft 382 kts 172°
2026-05-04 16:49 38.69127 3.01349 21390 ft 384 kts 173°
2026-05-04 16:49 38.63949 3.03107 22820 ft 389 kts 173°
2026-05-04 16:50 38.58703 3.04881 24110 ft 396 kts 173°
2026-05-04 16:50 38.53321 3.06690 25273 ft 405 kts 172°
2026-05-04 16:51 38.47848 3.08533 26460 ft 411 kts 172°
2026-05-04 16:51 38.45056 3.09471 26872 ft 417 kts 173°
2026-05-04 16:51 38.39454 3.11358 26965 ft 417 kts 172°
2026-05-04 16:52 38.33861 3.13245 26966 ft 416 kts 173°
2026-05-04 16:52 38.31025 3.14125 26966 ft 413 kts 174°
2026-05-04 16:53 38.25407 3.15020 26965 ft 405 kts 184°
2026-05-04 16:53 38.16970 3.15176 26965 ft 403 kts 186°
2026-05-04 16:54 38.14164 3.15151 26965 ft 403 kts 186°
2026-05-04 16:55 38.02915 3.17576 26969 ft 418 kts 172°
2026-05-04 16:55 37.97295 3.19521 26971 ft 417 kts 172°
2026-05-04 16:56 37.91760 3.21399 26632 ft 408 kts 172°
2026-05-04 16:56 37.83393 3.24135 24943 ft 410 kts 172°
2026-05-04 16:57 37.80620 3.25030 24346 ft 406 kts 172°
2026-05-04 16:57 37.75220 3.26771 23117 ft 398 kts 172°
2026-05-04 16:58 37.67289 3.29318 21304 ft 388 kts 173°
2026-05-04 16:58 37.64666 3.30157 20673 ft 386 kts 173°
2026-05-04 16:59 37.59531 3.31799 19460 ft 380 kts 172°
2026-05-04 17:00 37.49465 3.34982 17294 ft 373 kts 173°
2026-05-04 17:00 37.41999 3.37368 15475 ft 365 kts 172°
2026-05-04 17:01 37.37116 3.38930 14262 ft 360 kts 172°
2026-05-04 17:01 37.32301 3.40459 13050 ft 354 kts 171°
2026-05-04 17:02 37.27574 3.41957 11849 ft 349 kts 171°
2026-05-04 17:02 37.22927 3.43428 10776 ft 339 kts 170°
2026-05-04 17:03 37.20679 3.44141 10547 ft 326 kts 170°
2026-05-04 17:03 37.18538 3.44824 10428 ft 310 kts 170°
2026-05-04 17:03 37.14525 3.46095 10158 ft 284 kts 170°
2026-05-04 17:04 37.10744 3.47279 9458 ft 278 kts 170°
2026-05-04 17:04 37.07047 3.48438 8739 ft 273 kts 169°
2026-05-04 17:05 37.03369 3.49593 8024 ft 268 kts 168°
2026-05-04 17:05 36.99809 3.50712 7325 ft 264 kts 168°
2026-05-04 17:06 36.96288 3.51819 6638 ft 258 kts 167°
2026-05-04 17:06 36.94547 3.52365 6328 ft 256 kts 167°
2026-05-04 17:07 36.91094 3.53448 5633 ft 253 kts 167°
2026-05-04 17:07 36.89974 3.53799 5424 ft 251 kts 166°
2026-05-04 17:07 36.87764 3.54492 5244 ft 238 kts 166°
2026-05-04 17:07 36.86185 3.54986 5171 ft 226 kts 166°
2026-05-04 17:08 36.84690 3.55455 5111 ft 214 kts 166°
2026-05-04 17:08 36.81925 3.55746 4975 ft 189 kts 199°
2026-05-04 17:08 36.80853 3.54868 4984 ft 186 kts 222°
2026-05-04 17:09 36.80030 3.53603 4815 ft 192 kts 238°
2026-05-04 17:09 36.79674 3.51996 4533 ft 196 kts 268°
2026-05-04 17:09 36.79762 3.50299 4297 ft 198 kts 273°
2026-05-04 17:10 36.79953 3.46879 3785 ft 198 kts 271°
2026-05-04 17:10 36.80123 3.41746 3082 ft 197 kts 272°
2026-05-04 17:11 36.80120 3.40047 2849 ft 196 kts 261°
2026-05-04 17:11 36.79607 3.38499 2630 ft 194 kts 231°
2026-05-04 17:11 36.77880 3.35950 2252 ft 189 kts 229°
2026-05-04 17:12 36.77073 3.34649 2254 ft 190 kts 240°
2026-05-04 17:12 36.76660 3.31405 2083 ft 193 kts 251°
2026-05-04 17:13 36.73605 3.28398 1133 ft 183 kts 212°
2026-05-04 17:14 36.71249 3.25058 144 ft 161 kts 231°
2026-05-04 17:14 36.70594 3.24006 86 ft 141 kts 232°
2026-05-04 17:14 36.69920 3.22899 84 ft 39 kts 238°
2026-05-04 17:15 36.69960 3.22736 81 ft 18 kts 325°
2026-05-04 17:15 36.70061 3.22579 79 ft 10 kts 253°
2026-05-04 17:16 36.69975 3.22443 78 ft 10 kts 235°